Time,TemperatureF,DewpointF,PressureIn,WindDirection,WindDirectionDegrees,WindSpeedMPH,WindSpeedGustMPH,Humidity,HourlyPrecipIn,Conditions,Clouds,dailyrainin,SoftwareType,DateUTC
2013-02-16 01:03:00,43.1,6.8,29.84,East,81,17.0,24.0,22,0.00,,SKC,0.00,VWS V12.07,2013-02-16 09:03:00,
2013-02-16 02:05:00,42.3,7.2,29.83,East,82,22.0,29.0,23,0.00,,SKC,0.00,VWS V12.07,2013-02-16 10:05:00,
2013-02-16 03:03:00,42.6,7.4,29.81,East,83,15.0,24.0,23,0.00,,SKC,0.00,VWS V12.07,2013-02-16 11:03:00,
2013-02-16 04:03:00,42.8,7.6,29.81,East,86,15.0,23.0,23,0.00,,SKC,0.00,VWS V12.07,2013-02-16 12:03:00,
2013-02-16 05:03:00,41.8,7.7,29.82,East,92,15.0,21.0,24,0.00,,SKC,0.00,VWS V12.07,2013-02-16 13:03:00,
2013-02-16 06:03:00,40.3,8.1,29.82,ENE,76,12.0,18.0,26,0.00,,SKC,0.00,VWS V12.07,2013-02-16 14:03:00,
2013-02-16 07:03:00,40.8,9.4,29.82,East,83,7.0,18.0,27,0.00,,SKC,0.00,VWS V12.07,2013-02-16 15:03:00,
2013-02-16 08:03:00,43.8,8.4,29.83,ENE,77,19.0,19.0,23,0.00,,SKC,0.00,VWS V12.07,2013-02-16 16:03:00,
2013-02-16 09:03:00,46.8,4.3,29.83,East,86,17.0,22.0,17,0.00,,SKC,0.00,VWS V12.07,2013-02-16 17:03:00,
2013-02-16 10:03:00,47.6,3.6,29.82,East,81,14.0,23.0,16,0.00,,SKC,0.00,VWS V12.07,2013-02-16 18:03:00,
2013-02-16 11:03:00,47.7,2.3,29.81,East,85,16.0,18.0,15,0.00,,SKC,0.00,VWS V12.07,2013-02-16 19:03:00,
2013-02-16 12:03:00,50.2,4.3,29.79,ENE,73,11.0,16.0,15,0.00,,SKC,0.00,VWS V12.07,2013-02-16 20:03:00,
2013-02-16 13:03:00,50.8,0.0,29.76,ENE,70,12.0,12.0,12,0.00,,SKC,0.00,VWS V12.07,2013-02-16 21:03:00,
2013-02-16 14:03:00,52.0,-2.9,29.74,ENE,77,0.0,10.0,10,0.00,,SKC,0.00,VWS V12.07,2013-02-16 22:03:00,
2013-02-16 15:03:00,51.4,-1.3,29.73,ENE,78,1.0,3.0,11,0.00,,SKC,0.00,VWS V12.07,2013-02-16 23:03:00,
2013-02-16 16:03:00,51.0,-3.7,29.71,ENE,74,0.0,4.0,10,0.00,,SKC,0.00,VWS V12.07,2013-02-17 00:03:00,
2013-02-16 17:03:00,49.9,-6.7,29.71,ENE,74,0.0,0.0,9,0.00,,SKC,0.00,VWS V12.07,2013-02-17 01:03:00,
2013-02-16 18:03:00,46.2,3.8,29.71,North,5,5.0,5.0,17,0.00,,SKC,0.00,VWS V12.07,2013-02-17 02:03:00,
2013-02-16 19:03:00,44.9,13.8,29.71,NNW,341,0.0,1.0,28,0.00,,SKC,0.00,VWS V12.07,2013-02-17 03:03:00,
2013-02-16 22:03:00,44.6,10.1,29.70,NNW,342,0.0,0.0,24,0.00,,SKC,0.00,VWS V12.07,2013-02-17 06:03:00,
2013-02-16 23:03:00,44.5,9.0,29.68,NNW,340,0.0,5.0,23,0.00,,SKC,0.00,VWS V12.07,2013-02-17 07:03:00,